Find Kompass

NORAD ID: 27002 Int'l Des: 2001-056 Owner: IZM/MAK Country: RU operational
LEOCIRCULARRETROGRADESSO

Live Position

Loading 3D Globe...

About Kompass

Description loading...

Upcoming Passes

Passes for default location (London). Set your location on the main map for personalized predictions.

Altitude History

Loading altitude history...

Two-Line Element Set

1 27002U 01056B 26106.26469617 .00000007 00000-0 60206-4 0 9994
2 27002 99.7929 279.9270 0018672 293.9742 240.0146 13.70634591217752
Epoch: Apr 16, 2026 • Age: 13 hours

Current Status

Altitude 1011.2 km
Velocity 7.35 km/s
Sub-Earth Point -56.27°S, 43.25°W
Launch Date Dec 10, 2001
Age 24.3 years
Type other

Technical Details

Classification Payload
Mass 65.00 kg
Dry Mass 65.00 kg
Total Mass 65.00 kg
Length 0.80 m
Diameter 0.60 m
Span 1.20 m
Shape Trunc Tetrahedron + 4 Pan
Manufacturer MAK
Bus Type Shtil
Phase Status In Orbit
Owner/State IZM/MAK/RU

Most Searched